GFSMA_sfc_thetae_102.txt.gz
Theta_e
350 350 349 347 346 345 346 345 348 353 354 355 355 354 353 354 354 351 349 350 347 347 348 350 351 356 357 358 355 354 353 352 350 349 348 347 347 347 346 346 348 347 345
354 350 351 349 349 346 344 344 346 349 351 353 354 355 354 354 353 354 350 350 349 348 348 349 350 354 356 357 356 355 352 351 351 350 348 347 347 347 346 346 347 347 347
358 357 352 351 351 352 351 348 348 348 350 352 354 354 353 352 350 352 352 350 349 348 348 349 351 353 359 358 357 355 352 351 351 350 348 347 346 346 347 346 346 347 347
360 361 353 353 354 353 350 345 342 342 346 348 351 352 351 351 351 352 351 350 348 347 350 350 351 353 356 359 358 357 354 350 349 349 349 347 347 346 346 346 346 346 346
359 360 352 355 358 349 346 344 343 347 347 351 349 350 351 349 350 347 349 350 352 350 348 352 349 350 352 356 358 357 355 352 348 348 348 348 347 347 346 346 345 345 345
356 357 353 355 352 347 344 344 348 353 352 350 346 345 350 350 349 349 348 348 349 350 351 354 356 352 349 352 354 355 355 354 351 348 346 345 346 347 346 345 345 345 344
350 354 350 351 351 347 349 354 353 354 349 350 346 343 345 349 349 348 352 349 348 350 355 356 357 355 354 349 349 352 353 354 354 351 347 343 344 345 346 345 345 344 343
351 349 349 349 352 345 352 355 355 345 345 350 338 345 334 337 344 346 350 352 357 354 352 354 357 358 358 356 355 347 350 352 354 354 350 345 344 345 345 345 345 345 344
352 351 352 354 354 353 352 353 350 346 335 338 345 334 328 326 335 343 346 347 352 350 350 350 353 355 358 358 354 353 349 350 352 352 353 348 346 346 346 345 344 344 344
351 351 353 354 358 354 355 352 349 347 344 335 337 341 345 341 337 330 340 344 347 348 352 348 350 352 353 354 356 352 344 344 348 351 352 350 348 348 346 346 344 344 344
352 351 354 355 355 353 356 351 350 350 339 335 332 333 339 346 344 334 327 335 340 344 344 347 348 346 352 352 353 351 341 341 342 344 346 347 347 347 346 346 344 344 344
354 355 354 355 355 351 349 348 352 351 347 345 338 338 336 334 336 336 332 334 334 339 342 344 346 343 350 349 350 344 339 335 334 334 336 339 343 345 345 346 346 346 344
347 355 355 354 352 353 352 351 351 350 349 347 349 339 339 337 338 337 333 331 331 333 335 338 341 343 344 344 345 343 342 333 330 329 330 332 334 338 341 343 344 344 345
346 354 353 353 353 351 351 352 348 348 351 346 347 347 339 336 337 335 332 331 325 327 330 335 337 340 343 343 343 339 347 332 328 326 325 326 329 332 335 337 337 337 338
342 345 346 346 346 345 345 348 345 346 347 348 349 349 342 338 338 339 337 335 326 318 320 327 329 335 339 341 343 347 347 339 330 326 324 324 325 327 329 330 331 331 332
340 330 337 340 339 339 340 342 340 341 342 342 341 346 348 340 341 345 344 337 335 329 324 327 329 335 337 341 343 344 346 335 329 326 324 323 322 324 325 326 325 326 328
331 329 329 328 329 330 333 336 337 334 335 338 340 339 340 345 340 338 338 337 334 332 327 328 330 335 338 346 346 348 345 348 345 325 324 324 321 322 322 322 322 324 325
331 329 328 328 327 327 330 331 331 329 330 332 334 336 335 335 339 340 336 338 336 336 329 327 332 333 341 346 347 347 345 346 341 331 323 324 319 320 318 319 319 320 319
331 329 328 326 326 326 327 329 327 326 327 329 330 331 332 333 334 333 334 332 332 333 334 332 329 335 338 343 341 344 340 340 339 331 324 322 322 317 317 315 314 314 312
326 328 328 326 325 326 326 326 326 327 326 326 328 328 328 328 330 331 332 333 333 332 333 331 331 333 338 342 340 334 332 334 332 337 331 327 323 319 316 315 315 314 311
323 324 326 327 326 325 323 325 326 327 327 327 327 326 329 326 322 323 325 327 329 328 326 326 326 330 331 335 332 334 330 331 331 336 335 337 335 335 331 317 324 317 313
322 322 323 325 328 325 311 310 321 327 327 327 327 327 327 320 320 314 313 313 318 323 325 325 327 329 334 337 336 334 328 327 325 338 338 338 344 342 339 339 323 317 311
323 323 323 324 329 334 306 305 309 330 328 328 328 328 326 322 320 323 313 310 311 310 311 325 326 330 333 338 338 334 328 328 327 335 337 337 343 339 339 334 315 313 310
322 323 324 326 327 329 307 302 305 329 332 332 330 329 329 326 325 325 324 322 321 322 324 325 329 332 337 341 336 332 329 329 331 339 339 334 342 335 337 340 311 310 307
319 321 322 324 326 326 305 302 306 325 327 329 327 329 328 327 313 303 322 320 320 322 315 307 307 305 303 305 318 330 326 326 329 333 335 336 338 336 336 335 331 309 307
315 316 318 323 317 325 307 300 307 323 325 324 330 330 309 319 305 301 322 321 319 320 321 321 322 320 313 322 307 326 327 327 332 331 336 334 335 333 327 335 333 330 329

GFSMA_sfc_thetae_105.txt.gz
Theta_e
354 351 351 345 347 345 346 345 344 349 353 355 354 353 352 353 353 351 351 352 349 350 350 351 352 353 357 357 356 355 352 352 352 350 349 348 348 348 347 347 348 347 347
357 348 350 347 346 345 344 345 346 349 353 352 351 353 353 354 353 354 351 353 351 350 352 352 352 353 356 358 358 356 353 351 352 351 350 348 347 348 347 347 348 348 347
361 357 348 348 346 349 353 350 347 350 345 346 350 351 352 354 351 352 353 353 349 351 352 353 354 355 356 359 358 357 354 352 350 351 350 349 347 347 347 347 348 348 348
359 358 352 351 353 352 349 347 344 341 343 344 350 349 351 354 353 353 353 354 352 349 352 353 353 353 355 359 359 358 356 352 350 349 350 350 348 347 346 347 347 347 347
358 356 355 353 357 354 353 350 344 344 343 350 351 355 356 352 355 349 354 355 355 353 351 353 351 351 352 356 359 359 357 353 351 349 349 349 349 347 346 346 346 346 346
355 360 354 358 359 352 349 347 350 345 347 350 347 347 356 356 358 355 353 351 352 355 356 356 355 350 350 353 355 357 357 355 352 351 349 347 347 347 345 346 345 345 345
357 362 353 357 359 355 352 356 349 352 346 355 349 344 349 355 356 352 353 356 353 351 353 357 358 358 353 350 351 353 356 356 354 352 349 346 346 346 347 346 345 345 344
361 360 358 355 358 350 356 356 354 344 348 353 342 341 332 338 345 352 352 354 355 355 354 357 359 362 362 357 353 349 353 355 355 354 350 347 346 346 346 346 345 345 344
359 357 359 356 356 354 347 354 355 355 343 348 351 337 328 327 333 345 352 349 354 352 353 353 357 360 363 361 354 353 350 351 354 355 353 350 349 348 346 346 345 345 345
359 357 357 357 355 351 350 355 356 355 352 340 343 343 346 339 329 328 339 346 350 351 357 351 355 357 359 359 357 352 347 347 351 353 353 352 351 350 348 346 345 345 345
361 357 358 356 358 357 358 359 358 357 348 343 338 336 340 336 340 335 327 329 338 345 350 351 351 355 358 358 355 349 341 342 343 345 347 349 350 350 348 347 346 345 345
355 358 355 357 360 360 359 356 357 357 354 348 342 340 333 330 332 333 331 333 335 335 339 346 347 350 352 355 351 344 340 338 336 336 338 341 344 346 347 347 346 346 346
347 354 356 354 354 359 359 357 356 354 354 350 353 340 338 337 337 336 340 336 328 329 337 344 342 348 351 350 348 341 342 334 331 329 330 332 336 339 342 344 345 345 346
342 341 352 349 348 354 356 357 352 351 355 352 353 353 343 339 342 338 333 331 323 326 335 340 339 341 342 344 345 338 346 334 330 326 326 326 329 332 335 338 339 340 339
346 352 341 340 342 344 353 355 349 350 352 352 354 353 347 342 341 340 339 338 333 327 327 333 331 333 338 338 337 342 345 339 331 326 324 325 325 327 329 331 332 333 333
351 351 342 336 334 343 345 350 349 350 350 344 343 349 347 343 343 341 341 332 340 333 328 332 333 340 342 339 340 341 341 336 332 326 325 324 322 323 325 327 328 328 329
347 342 341 341 340 341 339 340 340 339 338 344 346 341 342 346 339 341 337 337 331 333 331 331 333 342 347 343 341 343 345 347 347 327 327 323 321 320 322 323 324 324 326
340 337 332 331 327 326 328 327 329 330 331 334 335 339 338 336 344 344 340 344 338 339 332 332 335 334 338 342 343 346 344 344 344 335 327 322 320 319 319 319 320 320 320
333 331 328 326 325 324 325 328 328 327 330 331 332 333 336 338 340 337 338 334 332 335 334 331 330 334 336 339 341 346 345 346 345 334 322 320 320 318 319 318 317 316 314
329 330 327 324 323 323 324 325 326 326 327 326 332 333 332 334 335 337 336 337 335 332 332 330 329 330 332 338 336 336 337 340 337 338 332 330 321 319 318 316 316 316 312
326 326 327 326 326 324 323 326 326 326 329 328 331 327 333 328 322 325 327 334 335 329 324 323 324 326 327 329 333 338 333 335 339 335 337 332 329 330 330 318 324 318 313
321 324 325 323 327 324 310 310 324 330 330 330 329 329 329 325 321 315 315 313 317 325 325 319 318 321 329 331 336 336 334 332 328 336 333 331 335 336 337 337 324 319 312
317 321 325 326 327 330 309 305 308 332 330 330 333 332 329 324 323 323 313 311 311 309 311 325 322 324 327 331 336 335 333 333 331 333 331 328 336 336 341 335 318 315 309
321 320 319 322 327 328 307 303 304 326 332 334 334 334 333 333 330 326 325 325 325 325 323 322 326 330 333 335 332 334 333 332 334 333 331 325 336 337 341 332 313 311 307
322 325 325 327 328 327 306 302 306 321 327 333 333 335 333 332 317 305 324 324 323 325 316 308 307 305 301 302 308 329 327 327 325 326 330 328 333 332 337 341 329 310 308
317 318 321 326 321 328 310 301 307 325 327 326 333 334 311 325 309 302 327 326 323 325 323 324 325 320 311 321 304 324 330 324 324 322 329 329 334 337 331 342 338 327 326

GFSMA_sfc_thetae_108.txt.gz
Theta_e
351 352 350 349 347 344 344 346 346 350 350 352 353 353 350 352 350 350 350 352 349 350 353 354 355 355 356 356 354 355 354 352 352 351 349 348 347 347 348 348 348 348 348
349 349 351 353 351 348 348 346 347 347 352 352 352 353 351 352 352 352 350 351 350 350 352 355 356 356 357 358 357 356 354 352 352 352 350 349 348 347 347 348 348 348 348
350 348 347 346 348 352 353 351 349 351 351 349 347 351 353 353 352 351 352 352 351 351 352 354 356 356 356 359 358 357 354 352 351 350 350 349 348 347 346 347 348 348 348
354 354 348 346 347 348 348 347 345 345 343 342 342 347 349 352 350 350 351 350 350 349 351 353 354 355 355 358 360 358 355 352 350 349 349 349 349 347 346 347 346 347 347
352 357 348 351 352 346 344 344 344 342 340 340 341 349 351 350 349 348 348 350 352 350 348 353 352 352 353 355 359 360 357 352 350 349 348 348 349 349 347 346 346 346 345
355 352 355 350 357 349 349 349 347 346 343 342 343 345 350 351 353 351 350 350 350 350 351 350 348 348 350 353 355 358 358 355 351 350 349 348 347 348 347 347 345 344 344
357 356 352 352 354 351 349 351 349 345 341 346 344 346 349 351 351 349 350 349 350 349 350 349 351 352 351 350 351 354 358 358 355 352 348 346 347 347 347 346 345 344 343
356 354 352 351 350 351 355 352 347 341 341 343 342 341 333 339 347 349 349 352 350 350 347 347 353 355 356 348 348 350 354 357 357 354 350 347 347 347 347 346 345 345 344
357 355 353 352 351 351 349 350 349 342 337 344 346 339 330 326 335 344 347 347 347 351 352 351 353 355 354 354 352 350 350 352 356 356 353 349 348 348 348 346 345 344 344
354 355 355 355 353 351 349 348 348 345 341 341 345 345 342 339 327 327 341 344 348 347 347 349 348 352 355 356 356 354 346 346 352 354 354 352 350 351 349 347 345 344 344
354 353 354 350 351 351 350 348 345 345 344 344 341 340 339 337 337 330 324 328 339 344 345 345 338 333 330 349 350 347 344 342 344 347 348 350 350 351 350 348 346 345 345
354 355 354 352 347 350 347 347 348 347 347 347 343 341 337 333 332 331 328 327 327 331 337 334 331 334 332 331 349 344 339 338 337 337 339 342 345 347 348 348 348 348 348
339 347 354 352 346 344 347 346 346 346 348 346 345 339 337 337 335 333 331 330 328 331 330 336 332 330 329 328 340 337 340 334 331 330 331 332 335 339 342 345 346 346 346
335 341 341 344 332 329 332 334 333 338 340 344 343 341 340 339 341 337 334 330 324 322 322 325 335 328 326 335 339 338 336 332 329 327 326 327 329 331 334 337 339 341 341
337 341 340 339 330 325 322 320 327 324 323 332 340 343 343 343 342 339 340 332 325 317 317 326 328 337 337 336 336 336 335 335 331 327 325 324 325 326 328 329 332 334 335
338 337 341 342 328 325 324 327 326 327 323 322 337 340 341 342 342 340 337 337 332 325 316 321 322 331 335 336 337 333 334 333 330 327 325 324 323 322 324 325 327 329 331
339 339 342 341 334 331 330 330 326 326 324 316 328 336 339 341 340 339 338 336 329 322 315 320 327 326 324 336 335 336 337 338 338 329 327 325 323 322 321 322 324 326 327
335 337 339 337 333 331 329 333 321 317 320 316 324 332 335 337 336 337 337 333 328 322 319 315 321 324 327 331 332 333 337 341 339 336 323 323 321 319 318 318 320 321 321
326 330 334 333 333 328 328 327 328 324 326 327 329 333 333 335 335 335 333 333 331 324 320 323 320 327 330 331 332 335 335 335 339 334 325 322 320 319 320 317 317 317 315
325 323 321 320 326 328 327 326 324 323 325 326 329 330 331 332 333 332 331 330 330 328 326 324 322 324 327 327 327 327 327 331 332 336 332 329 323 320 318 317 317 317 313
322 322 319 317 318 323 324 325 326 327 328 327 329 330 330 326 320 323 330 327 326 325 324 321 319 318 319 320 323 328 326 327 330 333 332 332 328 327 325 318 323 319 314
322 321 318 317 313 317 311 312 324 328 328 327 326 327 329 322 318 314 314 312 317 318 318 316 313 312 315 316 320 326 325 324 320 334 328 327 330 328 330 331 322 318 315
322 319 317 317 313 313 311 309 309 330 329 329 328 329 323 324 323 324 313 310 310 308 310 317 316 317 317 320 322 323 325 325 325 329 326 324 330 329 333 334 320 315 315
319 319 316 314 314 317 309 306 308 322 327 330 330 330 326 326 324 323 321 319 320 321 316 314 318 320 323 324 323 323 324 324 326 328 328 321 327 327 331 335 319 314 311
314 319 318 315 314 316 308 303 306 320 317 318 329 330 329 327 315 308 324 323 322 323 315 311 311 310 305 301 302 318 319 321 320 323 329 325 325 326 328 326 321 310 307
311 315 315 319 317 319 309 304 305 322 320 321 323 324 312 324 307 304 321 323 321 322 323 320 315 311 305 312 302 318 324 322 320 318 326 322 324 325 322 329 324 315 314

GFSMA_sfc_thetae_111.txt.gz
Theta_e
341 339 341 339 341 340 339 335 335 337 339 339 344 346 344 343 345 343 340 353 350 351 355 356 355 356 355 354 353 355 354 352 351 349 348 348 347 347 348 348 349 348 347
341 341 340 341 341 340 339 335 337 338 341 343 344 347 347 345 346 345 346 347 350 350 352 355 356 357 357 356 355 354 353 352 351 350 349 348 347 346 347 347 348 348 347
341 343 341 342 342 341 339 340 340 339 339 343 344 347 346 344 345 345 344 345 346 350 352 354 356 356 357 358 358 356 353 351 351 350 349 348 347 346 346 347 347 348 348
345 342 342 340 340 340 341 340 339 337 340 339 338 336 341 344 346 344 345 346 345 347 351 353 354 355 356 358 359 357 354 351 349 348 348 348 348 347 346 346 346 347 347
347 344 343 342 340 340 338 336 335 335 333 332 332 332 338 341 343 345 343 342 343 345 345 350 352 352 353 355 358 359 356 351 349 348 348 348 348 348 347 346 346 345 346
346 347 346 343 344 341 339 337 334 335 333 333 336 335 340 342 342 342 341 343 343 345 344 343 347 348 350 353 354 358 358 354 350 348 347 346 347 348 347 347 346 345 344
347 344 345 347 343 343 341 340 337 335 335 334 332 333 338 341 341 342 343 343 342 343 344 346 345 343 346 350 350 354 359 358 354 350 346 345 346 347 347 347 346 345 343
349 348 344 343 347 345 343 340 341 336 336 336 333 330 327 331 338 341 341 341 342 345 345 344 343 346 346 347 346 349 355 358 358 354 348 345 346 347 348 347 346 345 343
347 345 347 346 344 345 344 344 344 338 336 334 337 332 323 321 327 335 338 341 342 343 344 345 343 349 350 348 347 346 348 352 357 357 353 347 346 347 348 347 346 345 344
336 337 330 346 343 344 342 343 347 340 333 332 338 341 334 328 322 322 333 338 340 341 342 340 343 337 334 336 338 338 334 336 349 355 354 351 349 349 349 348 346 345 344
330 330 330 345 327 329 345 344 344 344 338 336 337 338 339 335 329 323 319 325 332 338 338 339 335 330 334 337 334 334 330 332 332 343 349 350 351 351 350 349 348 346 345
336 343 345 335 328 337 345 340 334 335 339 339 338 338 334 332 331 325 321 321 321 325 332 333 331 332 333 334 339 330 330 331 334 335 339 341 344 347 348 349 349 349 348
328 330 336 340 342 334 329 326 321 325 332 331 325 322 320 323 332 331 326 323 322 324 323 325 328 328 330 329 331 331 332 331 330 330 331 333 336 338 341 344 346 348 348
329 331 332 334 336 334 333 332 323 322 323 326 327 328 324 321 321 330 328 324 317 316 315 318 324 326 324 325 328 332 331 331 330 328 325 326 329 331 333 336 338 340 341
332 332 330 328 332 333 330 331 325 323 325 323 321 321 320 322 321 319 331 329 321 313 313 317 321 328 330 330 332 333 334 333 329 326 324 323 324 326 327 328 330 332 334
330 331 332 332 330 326 327 326 323 322 321 320 321 320 320 322 322 327 330 327 325 319 314 319 318 325 326 331 332 333 334 330 328 325 325 324 323 322 323 324 325 327 330
324 326 330 332 333 324 321 318 317 320 321 320 319 316 317 323 322 326 329 326 323 318 315 315 319 321 319 322 326 333 333 331 331 326 326 324 321 320 321 322 322 323 326
322 320 320 322 324 327 326 323 320 323 324 319 317 317 316 322 320 324 331 325 321 317 314 312 312 315 317 318 325 329 332 335 334 332 325 323 320 319 318 318 318 319 320
318 320 317 318 318 321 328 327 326 324 319 318 316 318 318 319 319 327 331 326 322 321 315 313 313 319 320 323 325 326 327 329 334 333 325 321 320 318 318 317 316 318 317
317 317 318 317 319 317 324 327 325 319 319 317 317 318 321 324 326 330 328 326 323 318 315 315 316 317 319 319 321 320 320 323 325 333 329 326 324 322 318 317 317 319 313
313 315 317 317 317 317 318 313 315 320 321 318 318 322 323 325 326 327 327 324 322 319 317 315 311 308 310 311 313 318 318 320 322 325 325 327 326 325 325 317 321 320 314
310 313 316 315 314 317 308 305 312 314 318 321 322 324 324 319 317 317 317 316 318 315 313 309 307 304 306 309 311 312 315 315 315 323 322 321 326 325 327 328 320 317 312
304 308 313 313 311 310 306 305 306 315 315 319 319 318 320 319 316 315 311 309 308 307 308 308 305 308 308 312 313 312 314 314 316 319 321 318 323 324 328 332 318 313 311
303 304 306 312 311 312 305 303 305 314 314 315 318 319 315 316 317 315 309 306 307 307 308 311 310 311 314 315 318 314 312 313 316 317 322 316 320 322 326 330 317 314 310
301 304 306 309 310 310 303 302 306 312 313 315 321 322 316 318 311 308 312 309 311 313 311 307 306 305 306 306 304 310 309 313 316 314 320 319 318 319 323 326 324 313 311
301 303 303 306 310 311 304 300 304 313 314 314 314 320 308 312 306 303 316 313 312 313 315 314 311 307 304 306 300 310 313 314 315 316 324 317 316 318 319 326 321 315 313

GFSMA_sfc_thetae_117.txt.gz
Theta_e
341 342 340 338 338 339 338 336 335 334 332 332 332 333 332 334 337 337 338 348 351 351 353 356 357 353 352 351 352 354 355 352 351 349 348 347 348 348 347 347 347 347 347
343 340 340 339 338 337 336 335 332 330 328 328 329 331 333 337 340 339 341 340 350 351 353 356 358 357 356 355 353 354 353 352 352 350 348 347 347 347 347 347 348 347 347
344 341 338 337 337 335 334 334 332 328 328 329 331 334 337 339 342 343 342 339 339 351 352 354 356 358 358 357 356 354 353 352 352 351 349 347 347 346 347 348 348 347 347
346 339 338 337 336 333 333 332 330 329 329 329 330 333 337 338 341 341 341 341 342 342 348 352 353 354 356 358 358 357 354 351 351 350 349 348 347 347 346 346 347 347 347
346 343 340 339 336 335 335 334 331 332 330 331 332 333 332 334 336 339 340 341 340 342 341 346 350 351 352 356 358 359 357 353 350 349 349 349 348 348 347 346 346 346 346
341 342 343 338 336 335 337 334 334 333 333 333 333 333 332 333 333 334 336 338 339 341 341 341 341 343 350 353 355 357 358 357 352 350 349 347 347 348 348 347 346 345 345
341 341 341 340 336 335 336 335 335 333 334 330 328 328 329 332 333 334 336 336 338 341 340 340 339 339 341 349 350 353 357 358 356 352 348 345 346 347 347 346 346 345 344
341 341 340 341 340 338 336 336 333 332 332 331 329 324 324 328 331 335 336 338 339 340 341 341 340 340 340 340 343 349 353 356 358 353 345 341 342 344 346 345 344 345 345
339 341 342 340 340 341 337 334 334 333 332 333 332 328 322 319 324 327 333 336 331 334 338 338 340 340 340 342 345 347 349 349 351 347 344 344 344 343 342 341 343 344 344
334 336 339 339 338 336 333 337 335 330 331 333 331 334 332 327 322 321 327 329 327 326 327 333 337 341 338 338 343 342 342 343 346 348 347 346 344 345 344 343 342 340 344
332 334 332 333 333 332 330 331 332 333 337 332 331 331 329 331 329 325 321 320 325 325 326 326 329 335 335 336 335 336 338 336 338 341 343 345 344 343 342 340 342 341 341
322 326 329 330 327 325 325 328 329 327 328 330 332 330 329 326 324 321 317 318 319 320 323 326 327 331 333 334 338 336 331 331 331 332 334 336 337 338 338 339 339 341 343
319 322 324 326 327 327 326 326 325 325 326 328 328 325 323 323 326 324 321 317 313 316 318 323 326 327 328 330 332 336 333 328 327 325 327 331 332 336 336 336 335 336 340
319 321 323 324 325 328 329 328 329 329 327 328 329 330 327 326 327 325 319 315 310 313 314 318 319 320 323 325 329 332 332 327 326 324 324 326 327 330 332 333 334 336 338
320 320 320 321 322 324 326 327 328 327 329 330 330 329 326 327 325 324 319 315 314 308 310 312 314 321 327 327 327 327 327 327 326 324 323 323 323 325 326 327 328 329 331
317 316 317 316 317 319 321 322 323 326 329 328 327 326 324 325 321 320 320 318 317 317 311 315 317 320 326 328 328 327 325 326 325 323 323 322 320 321 321 322 322 324 326
314 315 316 316 316 315 315 315 317 320 322 323 321 321 322 324 321 319 319 317 316 315 313 314 319 321 322 324 326 325 327 327 327 323 323 322 320 319 319 319 319 321 322
312 314 315 315 316 316 314 314 316 318 319 319 320 319 320 322 318 317 316 315 317 321 316 313 318 318 320 319 319 317 320 325 325 326 322 321 319 318 318 317 316 316 316
310 310 312 314 315 315 314 314 316 318 319 320 319 320 319 318 316 315 316 317 320 324 320 318 317 314 316 316 316 316 318 321 325 328 322 320 318 316 317 316 314 313 311
306 306 308 313 314 314 314 315 316 316 317 321 320 320 319 318 317 315 316 317 319 320 319 317 316 314 315 316 316 315 314 316 318 324 323 323 319 317 316 315 315 316 313
306 307 307 308 311 313 315 313 313 313 315 317 319 321 321 321 319 316 316 316 319 318 316 316 314 312 311 311 310 312 310 312 313 315 317 319 321 322 321 317 320 319 314
303 303 304 306 305 310 308 307 310 310 312 313 315 318 318 317 316 313 314 315 321 318 315 315 314 313 309 308 309 309 309 307 301 312 313 311 315 314 317 322 319 313 309
300 300 301 302 303 304 303 303 305 308 310 312 313 314 314 320 315 317 312 312 312 312 314 318 311 308 306 308 310 306 307 307 306 309 311 309 312 314 320 322 311 309 307
300 301 301 301 302 302 300 299 302 304 306 309 311 312 311 312 315 319 319 316 315 317 317 317 316 308 307 310 312 311 309 306 308 309 313 312 313 314 318 318 309 308 305
299 300 301 300 299 300 299 298 299 303 305 307 310 312 312 313 309 304 319 317 316 316 309 305 303 302 301 304 309 309 306 305 304 307 313 314 313 313 314 316 319 306 307
299 302 301 300 300 299 298 298 299 303 305 307 309 311 307 310 304 301 316 314 310 307 307 305 305 303 303 302 303 308 306 305 306 305 312 313 310 311 307 314 322 317 311

GFSMA_sfc_thetae_120.txt.gz
Theta_e
342 343 343 342 341 341 340 339 339 337 336 335 335 334 334 334 336 339 341 345 349 351 352 355 358 357 355 353 352 353 355 353 352 350 349 348 348 349 348 348 349 348 347
343 342 342 341 340 340 340 339 337 335 333 333 332 332 332 334 338 343 343 345 347 348 353 354 357 359 358 354 352 352 353 353 353 351 349 348 347 348 348 348 349 348 348
344 344 341 340 341 340 339 338 336 335 332 332 332 333 335 337 340 343 347 347 346 346 352 354 356 358 359 358 357 354 352 352 353 351 350 348 347 347 348 348 348 349 348
347 344 342 341 340 338 337 336 335 334 333 332 333 333 335 338 341 343 345 347 347 347 348 353 353 355 357 359 359 358 354 351 351 350 350 349 348 347 347 347 347 348 348
348 345 343 343 340 337 336 336 334 334 334 334 333 335 335 337 339 340 342 344 345 346 347 347 349 351 353 355 358 359 357 353 350 350 350 350 349 348 347 347 346 346 347
345 346 345 342 339 338 337 336 336 335 334 336 335 335 335 337 337 337 338 340 342 344 346 347 348 348 349 353 355 357 359 357 353 350 349 348 348 348 347 347 346 346 345
341 342 342 343 339 336 338 338 338 336 336 334 333 335 334 335 335 336 338 339 340 342 344 344 345 345 346 347 350 353 357 359 358 353 348 346 347 348 348 347 347 345 345
341 341 340 341 341 339 338 338 335 333 334 334 330 327 325 330 334 337 338 339 339 339 339 340 343 345 345 345 346 348 353 356 359 357 350 346 346 347 348 347 346 345 344
342 342 341 340 341 341 340 338 337 335 332 333 333 331 324 321 325 332 335 332 333 334 335 336 338 340 344 347 346 347 348 351 356 358 356 349 346 346 346 346 345 344 344
334 336 338 340 339 340 339 338 339 335 332 328 330 335 335 333 324 322 329 330 331 330 330 332 335 336 340 345 346 347 343 345 351 354 354 348 346 346 345 344 343 342 342
329 332 333 334 334 335 334 334 335 335 332 329 327 331 332 332 330 326 322 325 329 330 331 332 334 333 338 342 343 342 339 339 341 344 346 347 348 348 345 345 345 344 343
325 328 330 331 331 330 329 330 332 332 333 334 335 333 332 329 328 326 324 325 324 329 329 330 331 330 334 339 340 338 334 333 332 333 336 340 343 345 345 345 344 344 342
320 323 327 328 328 330 330 329 328 328 328 328 329 329 330 330 332 329 325 322 321 325 325 327 326 329 332 336 337 335 336 330 327 326 328 332 335 336 338 340 341 340 338
319 323 324 325 326 327 327 328 329 330 330 328 328 330 331 328 326 326 324 322 317 318 319 322 324 326 328 330 332 332 335 329 327 323 321 325 328 330 333 335 335 335 335
319 323 322 322 323 324 325 326 325 325 328 328 328 329 328 329 331 329 327 324 319 316 318 322 321 324 325 327 328 333 332 330 328 324 323 322 324 326 326 327 328 329 331
317 321 319 320 319 321 322 321 320 322 323 325 328 328 328 328 328 328 328 326 323 320 317 321 321 324 326 328 332 331 330 327 324 323 323 322 321 321 322 323 323 324 326
315 318 318 317 317 318 318 317 317 318 319 321 323 324 324 325 325 325 324 324 322 321 317 321 322 326 326 326 327 332 332 332 330 321 323 322 319 319 319 320 320 321 322
312 314 316 317 316 317 317 315 314 317 318 319 320 321 321 323 323 324 323 321 320 322 320 318 322 323 323 327 328 328 328 331 331 326 322 321 319 317 317 316 316 317 317
309 311 312 313 315 316 317 315 315 316 318 319 320 320 321 322 320 322 320 319 320 322 320 320 319 321 323 323 323 323 324 326 327 327 321 319 318 316 316 315 314 313 311
307 308 309 310 311 314 316 315 315 316 317 317 319 321 321 321 319 319 319 319 320 320 321 319 318 320 320 322 323 323 323 326 327 329 324 323 320 317 315 314 314 315 311
306 307 307 309 310 312 313 314 315 316 316 315 317 319 321 322 320 319 320 318 320 320 321 318 317 320 319 318 321 322 322 322 322 323 326 329 328 326 325 316 320 317 314
304 304 305 306 307 309 307 307 312 314 315 314 314 315 318 318 318 314 313 314 318 319 320 320 320 318 315 316 316 319 318 317 312 320 322 320 323 323 323 324 318 313 308
302 302 303 304 304 306 302 302 305 311 311 310 311 313 314 317 317 320 313 311 310 310 314 322 320 321 314 313 315 316 317 316 315 318 321 320 322 325 330 329 308 309 307
298 299 300 301 302 303 301 299 301 308 308 308 309 309 310 313 316 318 319 318 316 318 318 321 323 323 317 317 320 319 319 316 316 318 321 318 323 325 328 328 308 308 305
296 297 298 298 298 300 299 298 300 304 304 304 307 308 309 311 307 302 316 317 318 318 313 309 309 307 305 303 311 317 315 315 313 316 320 322 323 323 323 325 322 305 303
294 296 296 296 298 302 298 297 298 303 303 305 307 309 305 309 303 300 311 315 315 318 317 313 312 306 307 307 305 321 316 315 315 315 320 322 321 321 318 322 327 324 320

GFSMA_sfc_thetae_123.txt.gz
Theta_e
352 351 351 351 351 350 349 347 346 345 343 341 340 339 338 339 338 337 341 349 349 351 352 354 355 358 359 356 355 355 355 355 353 351 350 349 349 349 349 348 349 349 348
354 351 351 350 350 351 350 349 349 347 345 344 342 341 341 343 342 343 339 347 349 350 352 355 356 359 360 357 354 353 352 353 354 352 350 349 348 349 349 349 349 349 348
355 354 352 351 351 352 353 351 350 350 347 346 345 344 344 345 346 346 345 344 349 351 350 354 356 357 359 360 357 355 351 351 352 352 351 349 348 348 349 349 349 349 348
355 355 352 350 353 352 351 350 349 347 346 345 344 345 345 345 347 348 348 349 349 350 352 351 354 355 357 358 360 359 355 351 350 350 350 350 349 348 347 348 348 348 348
355 355 353 353 355 351 350 348 347 346 344 344 343 343 344 345 346 345 348 350 351 350 350 351 350 351 353 355 358 358 357 354 350 350 350 351 350 349 348 347 347 347 347
355 356 354 355 354 350 349 348 348 348 345 345 341 341 344 343 344 344 345 346 348 350 350 352 352 350 349 352 354 357 359 358 354 351 349 349 349 349 348 347 347 346 346
352 353 352 353 353 349 350 350 348 347 345 345 342 341 340 343 344 342 344 345 347 348 350 351 351 351 351 348 349 352 355 358 358 355 350 347 347 349 348 348 347 346 345
351 351 351 351 352 349 350 349 346 344 343 345 339 339 330 334 338 341 343 344 345 347 345 346 346 349 350 351 352 348 351 354 357 358 353 347 347 348 349 348 347 346 345
351 351 350 349 349 348 346 347 345 343 340 344 345 337 328 324 333 337 339 340 344 341 341 341 344 345 347 347 348 350 348 349 353 356 356 351 348 349 348 348 347 346 346
342 343 345 347 348 346 344 344 346 343 343 338 341 341 339 335 326 324 335 339 341 339 341 341 341 343 344 344 345 345 345 344 350 353 354 354 352 350 349 348 347 346 346
341 340 342 343 343 341 343 343 342 341 340 339 336 336 336 336 337 330 325 329 336 338 339 341 339 339 344 343 343 342 341 341 341 343 347 349 350 349 349 348 346 345 345
336 339 338 341 342 340 339 339 340 340 338 338 336 338 335 331 332 330 329 331 332 336 338 339 338 338 340 339 341 338 336 334 333 334 337 340 344 346 347 347 347 346 345
331 334 338 338 335 338 338 338 338 338 337 335 336 333 334 335 337 336 333 330 331 334 332 334 335 336 338 339 340 337 337 332 329 329 330 331 335 338 341 344 345 345 346
329 334 335 335 335 334 335 336 332 332 336 334 332 332 330 331 333 334 334 330 326 328 330 330 333 334 336 337 337 334 336 330 327 325 324 326 328 331 334 336 336 337 338
328 331 332 331 332 331 330 332 327 330 331 331 332 334 332 332 333 332 331 331 326 321 325 330 328 336 334 335 335 337 337 332 328 324 321 321 323 324 327 328 329 331 331
328 328 329 330 329 329 328 330 326 327 328 326 326 329 330 329 331 333 332 328 327 324 323 330 331 333 334 333 334 334 334 329 327 324 323 322 321 322 323 323 324 326 327
323 323 324 326 327 327 328 328 327 324 323 324 326 326 326 329 326 327 329 331 325 324 320 325 332 335 334 333 333 334 335 335 335 322 323 321 319 319 320 320 321 322 323
319 319 321 322 322 323 324 324 323 320 320 319 320 322 321 321 326 327 326 328 327 325 321 318 327 331 334 334 333 333 333 333 335 326 321 320 318 318 318 318 317 317 317
314 314 314 315 316 318 321 322 321 320 319 319 319 320 320 321 322 323 325 324 324 326 323 320 321 330 331 330 331 333 333 334 335 328 320 319 318 317 317 316 315 314 312
311 311 312 312 312 312 314 316 319 320 321 319 322 322 320 320 320 322 323 324 325 322 321 320 319 325 327 330 330 329 328 332 330 331 327 326 324 319 316 315 315 315 311
309 309 309 310 312 312 310 313 315 319 321 321 323 320 323 321 318 319 319 322 323 321 319 319 319 322 321 326 327 331 327 328 332 335 334 334 335 335 332 317 324 317 313
308 308 308 308 309 310 304 304 310 316 318 319 320 320 320 318 318 314 313 314 319 321 318 318 319 318 320 328 329 329 328 327 323 331 330 329 331 328 329 330 319 313 309
306 306 306 306 306 308 303 301 303 312 315 317 317 317 316 315 314 318 313 311 311 309 313 320 320 324 326 329 330 329 328 326 323 326 326 321 327 324 331 328 312 310 308
301 302 302 303 304 305 300 298 300 305 310 314 315 315 315 314 313 313 314 316 319 320 318 321 321 326 330 331 328 327 322 323 324 325 331 317 329 328 332 331 309 307 306
299 298 299 299 300 301 298 297 298 302 303 308 311 313 311 311 304 301 311 310 315 319 313 308 310 309 306 306 315 321 321 317 316 319 328 323 325 324 327 328 327 305 304
294 294 294 296 297 298 297 295 296 300 300 305 309 310 303 306 300 299 311 311 311 317 319 319 319 311 309 312 306 323 321 315 317 317 325 323 323 323 317 329 329 326 328

GFSMA_sfc_thetae_129.txt.gz
Theta_e
358 353 354 349 349 348 347 347 346 347 347 348 347 344 341 340 339 338 338 353 351 352 354 355 358 358 359 357 356 357 357 355 355 353 351 351 350 350 350 350 350 350 349
363 355 356 354 353 352 351 351 351 352 353 353 351 351 350 349 345 345 342 345 353 352 355 357 359 361 361 360 358 357 356 354 354 354 352 351 350 350 351 350 350 350 349
365 365 353 354 352 355 356 355 354 356 352 351 352 348 348 350 349 352 347 348 347 351 353 356 358 359 361 362 360 358 355 353 353 353 352 351 350 350 350 350 350 350 349
361 363 357 356 357 359 354 353 352 351 350 349 349 349 349 349 349 353 349 350 347 347 350 356 357 357 359 361 361 360 356 352 351 350 351 351 351 350 349 349 350 350 349
359 358 355 353 363 357 355 353 352 354 351 350 347 349 351 348 350 344 350 352 354 350 350 352 354 354 355 358 360 361 359 355 351 350 349 350 351 350 349 349 349 348 348
358 358 356 360 361 355 352 352 362 354 356 351 345 344 351 349 349 349 351 349 350 353 353 357 355 352 351 355 357 359 360 358 354 352 350 348 349 350 350 349 348 348 347
358 363 356 362 361 359 359 357 354 356 349 349 343 341 343 349 353 348 347 347 349 351 352 353 357 353 352 350 351 354 357 359 358 356 351 348 348 349 350 349 348 347 346
360 362 364 361 363 350 358 356 357 349 345 345 339 336 330 335 339 346 346 348 350 345 344 350 353 355 356 354 353 350 354 357 358 358 354 349 348 349 350 349 348 347 346
360 360 360 359 360 357 348 358 354 350 341 341 349 337 329 325 333 339 343 340 348 341 344 348 351 352 356 353 351 352 350 352 356 357 356 352 351 350 350 349 348 347 347
359 358 360 359 361 353 354 347 346 348 349 339 336 338 347 343 331 329 337 341 343 342 351 346 348 349 353 352 352 349 346 347 351 354 354 353 353 352 350 348 348 347 347
358 357 356 353 350 345 350 346 345 348 341 337 332 331 336 332 339 333 327 330 337 339 340 342 347 348 348 349 351 348 341 340 343 345 347 349 351 352 352 350 349 347 348
348 346 343 345 346 346 341 342 345 344 344 341 334 334 327 324 324 327 325 329 329 332 336 340 344 345 348 349 348 340 337 335 334 335 338 341 344 348 351 351 352 351 350
339 348 345 347 340 345 341 345 345 343 340 335 343 329 326 325 326 326 325 324 323 327 330 334 338 343 343 348 348 340 340 332 329 328 330 333 336 340 344 346 348 349 350
333 348 344 341 341 338 342 344 333 331 338 335 341 338 326 324 325 324 322 322 321 323 327 334 333 336 344 345 345 336 341 331 328 326 326 327 330 333 336 339 341 342 343
331 334 335 339 340 338 339 343 333 336 338 338 335 339 331 326 326 326 325 322 320 316 319 325 326 337 336 338 341 344 342 335 329 326 324 323 325 328 330 332 333 335 336
335 335 335 337 337 338 340 342 335 336 338 332 331 333 334 329 329 327 326 323 322 320 317 323 324 332 337 340 342 337 340 333 329 325 324 322 321 323 325 326 327 329 331
329 329 330 331 332 335 338 339 338 337 335 335 335 332 332 335 328 326 326 324 322 322 318 321 326 332 337 339 340 341 342 342 341 325 325 324 320 320 321 322 323 325 327
325 324 324 324 325 327 333 334 333 332 332 331 332 332 330 330 331 330 327 327 324 326 322 321 324 326 331 335 336 338 339 335 338 331 323 321 319 319 319 318 319 320 321
320 320 320 319 319 321 324 327 328 328 330 331 330 330 330 330 328 328 328 326 324 324 324 321 322 325 327 329 330 335 337 339 339 332 322 321 319 318 318 317 317 317 316
317 316 317 316 315 316 317 319 320 322 324 325 328 330 329 329 328 327 325 326 326 325 323 321 321 321 323 329 328 328 328 334 334 335 332 330 324 319 318 317 318 318 314
315 315 314 315 316 316 314 317 319 319 320 321 322 324 326 327 323 324 325 325 325 322 321 318 318 318 320 321 323 326 327 328 334 337 336 337 335 333 329 318 325 319 314
314 313 314 312 315 313 306 303 307 312 313 316 316 318 321 320 318 313 313 314 318 322 321 318 316 314 321 320 323 325 327 326 325 338 339 333 334 332 333 333 325 320 313
316 313 313 313 312 313 303 301 302 307 307 309 312 314 315 314 315 318 314 311 311 309 311 320 318 319 319 322 325 326 326 328 328 329 337 331 338 332 328 317 311 311 310
311 308 307 308 307 304 298 298 299 301 301 302 303 306 308 310 312 313 314 316 319 319 317 318 321 322 323 325 327 328 327 324 325 323 339 329 329 328 333 325 308 309 310
304 302 301 298 297 299 298 296 297 298 297 298 299 300 300 302 301 299 303 304 311 316 312 306 307 307 306 305 309 324 321 317 317 321 334 328 326 326 330 333 323 309 307
296 294 295 297 298 300 298 295 296 298 296 296 297 299 299 299 297 297 301 302 306 310 312 312 317 313 307 315 304 319 324 315 321 325 323 323 324 322 320 328 332 327 322

GFSMA_sfc_thetae_132.txt.gz
Theta_e
351 354 352 349 349 348 346 348 346 348 348 345 345 344 340 340 341 339 338 353 351 351 354 357 358 359 359 357 356 357 357 356 354 353 351 350 350 350 350 350 350 350 349
360 356 358 357 356 357 351 348 349 351 350 350 350 351 349 349 348 346 340 344 350 352 354 356 358 360 361 361 358 356 355 355 355 353 352 351 350 350 351 351 350 350 349
362 365 359 358 358 358 360 358 357 356 355 352 350 349 347 348 351 351 350 346 346 350 353 355 356 358 360 362 361 358 354 354 353 353 352 351 350 350 350 351 350 350 349
361 363 360 356 354 356 356 355 353 352 351 350 349 349 350 349 348 347 351 349 347 346 349 353 355 357 358 361 362 361 357 353 351 351 351 351 351 350 350 350 350 349 349
362 360 357 356 362 360 360 354 352 353 351 352 350 348 349 347 345 335 346 349 349 347 346 351 351 354 355 358 360 361 359 355 351 349 349 350 351 350 349 349 349 349 348
360 360 357 354 357 357 356 354 352 355 354 352 348 345 346 347 349 347 349 352 349 348 349 349 348 349 351 354 357 358 359 359 354 351 349 348 348 350 350 349 349 348 347
359 359 358 355 358 352 356 356 356 354 349 350 346 343 344 348 347 346 345 345 346 347 349 348 350 349 350 350 350 353 356 357 358 356 350 347 347 349 350 349 348 347 346
356 355 352 351 352 353 356 356 354 349 349 350 340 339 330 333 338 342 341 345 339 345 344 345 347 352 351 350 349 349 353 356 355 356 353 348 347 348 350 349 348 348 346
355 354 354 352 355 354 352 354 355 350 345 344 343 337 328 324 331 336 337 338 339 337 340 344 346 348 351 351 350 350 350 350 354 355 354 350 350 350 350 349 348 348 347
359 360 356 356 355 357 353 352 353 350 346 338 340 340 339 338 327 323 332 336 335 336 338 339 342 346 348 348 349 350 347 347 351 352 352 351 353 353 351 349 348 347 347
361 356 356 354 357 355 351 349 347 348 345 341 336 333 332 332 332 329 323 326 334 335 338 335 333 337 342 343 343 345 342 341 343 345 347 348 349 351 350 349 349 348 348
355 353 352 353 351 350 347 346 346 343 342 340 338 334 328 323 321 322 319 320 321 324 330 335 334 334 337 345 347 342 339 334 334 335 338 342 344 346 347 349 351 351 350
349 352 348 347 345 346 344 343 344 341 342 338 337 333 331 326 324 323 320 317 316 320 322 326 329 329 330 340 343 338 339 333 329 329 331 334 337 338 340 343 347 350 351
333 350 340 345 344 344 344 341 340 338 336 335 333 333 329 327 325 322 319 317 313 315 320 325 331 328 329 331 338 338 338 333 328 326 325 326 329 332 334 336 338 340 344
332 334 337 338 342 341 340 340 337 336 336 336 333 336 333 328 326 325 322 320 316 308 310 316 318 329 330 330 336 336 334 334 332 326 324 323 324 326 328 329 332 335 337
331 329 331 332 334 336 340 339 335 335 334 332 330 329 330 328 327 326 324 321 319 315 310 315 317 324 330 331 333 336 337 333 330 327 326 324 322 321 323 325 327 330 332
331 328 328 328 329 329 331 332 334 333 330 331 331 329 327 329 327 325 323 322 319 318 314 316 319 322 324 326 326 329 333 335 334 327 326 324 322 320 320 321 323 325 327
326 324 324 323 323 323 326 328 328 328 328 328 328 327 326 327 327 326 324 321 320 319 317 313 317 318 319 322 328 329 330 330 330 330 324 323 321 319 318 318 318 320 321
321 321 320 319 318 318 319 320 320 321 324 326 325 325 324 325 323 323 324 324 323 322 320 317 316 319 317 319 320 323 325 326 332 331 325 323 319 319 318 317 316 316 316
318 317 317 316 316 315 315 315 315 315 316 316 318 320 323 323 322 322 322 321 322 320 319 318 316 314 315 317 318 319 318 323 325 331 329 327 323 319 318 317 317 317 315
316 315 314 314 315 314 313 312 313 312 312 312 314 314 315 317 316 317 320 320 320 318 317 315 315 314 314 312 317 319 316 319 322 327 328 330 325 323 320 317 321 319 315
315 315 314 313 312 312 306 302 303 305 308 308 308 310 312 314 313 311 310 312 316 316 314 314 313 312 313 313 314 315 315 315 314 324 325 327 329 329 329 324 319 315 312
313 311 311 311 310 310 302 297 299 301 301 303 304 304 305 307 308 310 310 309 310 307 309 314 313 313 313 314 314 313 313 314 316 321 324 321 327 326 326 322 312 312 312
307 305 305 305 305 304 299 296 297 298 299 300 301 301 301 301 302 303 305 305 307 309 311 314 314 314 316 316 316 314 314 316 319 321 323 314 325 324 323 318 310 310 309
302 301 301 299 298 296 296 296 297 298 299 299 300 300 300 300 299 297 299 299 302 304 306 306 305 306 304 302 306 314 313 311 310 314 321 319 321 320 322 319 314 307 306
295 294 293 294 295 294 296 295 296 298 297 297 298 299 298 298 296 295 297 298 298 300 302 304 312 309 307 310 304 308 311 310 311 312 320 318 319 320 319 323 316 312 307

GFSMA_sfc_thetae_135.txt.gz
Theta_e
337 340 341 342 342 342 340 336 337 337 337 336 336 336 335 333 332 333 333 353 351 352 355 357 357 358 358 357 355 355 356 355 354 352 351 350 350 350 351 350 350 350 349
340 339 341 342 343 342 341 339 340 338 339 340 339 342 342 342 343 340 338 337 351 350 352 356 358 359 360 360 358 356 355 355 355 353 351 350 350 350 351 351 350 350 349
347 349 347 346 345 347 346 344 344 348 349 348 344 343 343 342 344 344 343 342 342 350 351 354 356 358 359 360 360 359 356 354 354 353 351 350 349 349 350 351 351 350 349
351 351 351 349 349 347 348 344 342 340 340 341 341 342 344 343 342 338 335 339 342 342 348 352 353 355 357 359 360 360 356 354 352 351 351 351 350 349 349 350 350 350 349
353 351 351 349 348 349 349 349 346 342 341 344 346 343 340 340 341 342 333 332 339 342 340 348 351 351 353 356 358 359 358 353 350 351 351 351 351 350 349 349 349 349 348
354 352 349 347 350 347 347 348 343 347 346 341 344 342 338 338 340 333 335 341 341 331 330 337 343 345 349 353 356 358 358 357 353 352 350 348 349 350 349 349 349 348 348
351 350 349 349 349 346 344 347 345 340 340 340 336 334 335 337 334 338 339 338 333 333 328 324 334 344 346 350 350 353 357 356 355 354 349 346 347 348 349 349 348 347 347
349 340 337 346 346 344 342 343 344 340 341 340 333 330 325 326 329 333 334 335 330 331 328 331 338 342 345 346 347 349 354 356 356 354 350 347 346 348 349 349 348 348 347
342 337 341 346 342 342 331 333 340 340 336 337 335 326 319 318 321 327 329 332 329 329 333 336 336 338 344 347 346 345 347 348 354 354 353 350 349 350 347 347 348 347 347
340 341 344 348 344 343 338 333 341 342 337 332 330 333 329 326 323 319 323 327 329 328 329 331 333 331 338 343 345 345 341 340 337 343 349 350 350 351 350 349 348 347 347
331 328 342 348 347 341 340 338 338 337 337 331 329 325 322 322 322 321 313 314 321 322 325 329 326 330 329 334 338 338 338 331 332 334 340 346 348 348 348 348 349 348 346
344 339 344 344 343 340 335 332 333 331 330 330 329 325 321 316 313 313 311 312 311 315 319 320 320 327 324 327 341 342 332 330 328 331 334 338 342 345 346 346 349 350 350
331 335 334 333 333 333 333 333 334 331 330 328 327 325 323 321 317 314 312 309 309 311 314 318 321 322 325 328 331 337 336 331 329 327 328 331 336 338 341 342 344 346 348
325 326 329 332 332 333 332 329 328 331 328 325 323 323 323 320 318 315 311 308 307 307 310 313 315 317 321 324 333 337 333 330 328 326 325 325 328 331 332 334 335 336 339
327 325 325 325 327 327 330 328 329 326 326 323 324 324 323 322 321 318 316 313 308 304 303 307 310 315 317 323 330 331 331 333 332 327 325 324 324 325 327 328 329 330 332
320 322 324 324 325 326 328 330 331 330 329 328 328 326 325 325 323 319 317 316 312 309 308 309 309 312 317 326 328 327 331 330 328 326 325 324 323 322 323 324 324 326 329
317 317 318 317 318 319 320 321 322 325 326 324 323 323 322 322 320 320 318 317 315 312 311 311 311 314 315 316 318 320 323 328 329 325 325 323 322 321 321 320 321 323 325
315 316 316 315 315 315 314 314 316 319 321 321 323 322 321 325 321 319 319 318 317 313 311 312 310 311 313 314 315 317 324 329 324 325 322 321 320 318 318 318 318 319 320
312 312 313 312 313 313 312 311 311 312 311 312 316 318 320 320 319 320 320 319 318 320 317 315 314 314 314 314 313 314 316 318 323 326 322 321 319 319 318 317 317 316 316
312 311 310 311 311 311 311 310 310 308 307 309 309 310 310 310 311 310 314 316 318 317 317 316 315 312 310 310 309 309 310 316 318 325 324 323 321 322 319 317 317 317 314
310 309 309 308 308 309 310 303 303 303 303 303 305 307 308 311 313 311 309 307 310 312 314 314 313 313 313 308 307 310 312 315 314 316 316 319 324 326 323 317 320 318 314
306 306 306 306 305 308 300 300 299 297 299 300 300 303 304 307 307 307 307 308 307 306 305 308 311 310 310 307 309 311 309 310 306 313 315 315 320 322 324 324 318 315 312
299 299 299 301 301 300 301 297 298 296 295 296 297 298 300 303 304 304 304 305 305 305 306 306 303 307 309 308 308 308 308 308 307 311 315 312 316 318 323 325 312 311 309
297 297 297 298 297 298 298 296 296 296 296 297 298 299 300 300 300 300 300 300 301 303 304 307 306 306 307 310 311 312 309 307 309 312 316 311 315 318 323 317 311 308 306
295 293 293 293 294 294 295 295 295 295 296 296 297 299 299 298 297 296 298 297 297 298 301 302 302 301 300 301 304 311 307 309 306 306 313 312 313 315 317 318 315 310 309
291 293 292 293 294 293 294 293 294 294 293 294 297 298 298 298 296 295 296 296 295 297 299 300 302 302 302 306 304 308 308 306 307 303 310 312 312 315 315 316 315 312 309